#timestamp,LO_Frequency,Hit,StdDev 
1583846615.0,286047014.7,P
1583846646.0,286047016.6,E
1583846655.9,286047008.4,N
1583846675.7,286047001.1,P
1583846695.6,286046998.4,N
1583846715.4,286046998.9,N
1583846735.2,286046998.8,N
1583846755.1,286046998.4,N
1583846756.0,286046998.4,N
1583846775.8,286046998.4,N
1583846795.7,286046999.9,N
1583846815.5,286047002.1,N
1583846835.3,286047003.5,N
1583846855.2,286047001.8,N
1583846875.0,286047001.7,N
1583846875.9,286047001.7,N
1583846895.8,286047004.0,N
1583846915.6,286047003.4,N
1583846935.4,286047003.4,N
1583846955.3,286047003.4,N
1583846975.1,286047004.3,N
1583846995.8,286047001.6,N
1583847015.7,286047001.4,N
1583847035.5,286047001.3,N
1583847055.4,286047003.4,N
1583847075.2,286047003.7,N
1583847095.0,286047003.2,N
1583847095.9,286047003.2,N
1583847115.8,286047003.0,N
1583847135.6,286047004.8,N
1583847155.5,286047007.5,Y
1583847175.3,286047003.1,P
1583847195.1,286047004.4,P
1583847215.9,286047005.3,P
1583847235.7,286047005.0,Y
1583847255.5,286047002.3,P
1583847275.4,286047001.9,N
1583847295.2,286047004.3,P
1583847315.1,286047003.5,Y
1583847316.0,286047003.5,P
1583847335.8,286046999.9,N
1583847355.6,286046999.8,N
1583847375.5,286047000.1,N
1583847395.3,286046999.7,N
1583847415.2,286047001.6,N
1583847435.9,286047001.8,N
1583847455.7,286047001.6,N
1583847475.6,286047003.9,N
1583847495.4,286047003.5,N
1583847515.2,286047003.1,N
1583847535.1,286047003.1,N
1583847536.0,286047003.1,N
1583847555.8,286047005.6,Y
1583847575.7,286047003.2,P
1583847595.5,286047005.5,P
1583847615.3,286047005.1,P
1583847635.2,286047005.6,Y
1583847655.0,286047002.1,P
1583847655.9,286047002.1,N
1583847675.7,286047001.3,N
1583847695.6,286047001.7,N
1583847715.4,286047003.2,Y
1583847735.3,286047002.0,P
1583847755.1,286047003.8,P
1583847775.8,286047001.6,N
1583847795.7,286047003.9,Y
1583847815.5,286046999.7,P
1583847835.4,286047004.0,N
1583847855.2,286047001.8,N
1583847875.0,286047001.3,N
1583847875.9,286047001.3,N
1583847895.8,286047003.4,N
1583847915.6,286047005.5,Y
1583847935.5,286047004.3,P
1583847955.3,286047003.6,P
1583847975.1,286047001.4,N
1583847995.9,286047003.0,N
1583848015.7,286047003.6,Y
1583848035.5,286047001.5,P
1583848055.4,286047002.6,P
1583848075.2,286047001.4,N
1583848095.1,286047004.2,Y
1583848096.0,286047004.2,P
1583848115.8,286047000.3,N
1583848135.6,286047000.4,N
1583848155.5,286046999.7,N
1583848175.3,286047001.3,N
1583848195.2,286047002.4,N
1583848215.9,286047002.8,N
1583848235.7,286047001.3,N
1583848255.6,286047001.8,N
1583848275.4,286047003.8,N
1583848295.3,286047001.8,N
1583848315.1,286047001.8,N
1583848316.0,286047001.8,N
1583848335.8,286047004.1,Y
1583848355.7,286047001.3,P
1583848375.5,286047011.9,P
1583848395.4,286047003.9,N
1583848415.2,286047001.3,N
1583848435.0,286047003.7,N
1583848435.9,286047003.7,N
1583848455.8,286047003.7,N
1583848475.6,286047003.1,N
1583848495.4,286047005.7,N
1583848515.3,286047005.3,N
1583848535.1,286047004.5,N
1583848555.9,286047007.0,N
1583848575.7,286047007.4,N
1583848595.5,286047006.9,N
1583848615.4,286047006.2,N
1583848635.2,286047009.0,Y
1583848655.1,286047004.1,P
1583848656.0,286047004.1,P
1583848675.8,286047004.9,P
1583848695.6,286047007.1,Y
1583848715.5,286047001.5,P
1583848735.3,286047003.5,N
1583848755.2,286047003.5,N
1583848775.9,286047001.3,N
1583848795.7,286047001.4,N
